Change the Weather History Date:

Wednesday, March 27, 2013

  Actual Average Record
Temperature  
Mean Temperature 33 °F -  
Max Temperature 43 °F 52 °F 62 °F (2006)
Min Temperature 23 °F 36 °F 23 °F (2011)
Degree Days  
Heating Degree Days 32    
Moisture  
Dew Point 18 °F    
Average Humidity 56    
Maximum Humidity 80    
Minimum Humidity 19    
Precipitation  
Precipitation 0.00 in 0.06 in - ()
Sea Level Pressure  
Sea Level Pressure 29.97 in    
Wind  
Wind Speed 11 mph ()    
Max Wind Speed 18 mph    
Max Gust Speed 29 mph    
Visibility 7.0 miles    
Events      
Averages and records for this station are not official NWS values.
T = Trace of Precipitation, MM = Missing Value Source: Averaged Metar Reports

Daily Weather History Graph

Daily Weather History Graph

Search for Another Location

Airport or City:

Trip Planner

Search our weather history database for the weather conditions in past years. The results will help you decide how hot, cold, wet, or windy it might be!

Date:

Astronomy

Mar. 27, 2013 Rise Set
Actual Time 6:19 AM CET 6:59 PM CET
Civil Twilight 5:44 AM CET 7:34 PM CET
Nautical Twilight 5:02 AM CET 8:16 PM CET
Astronomical Twilight 4:18 AM CET 9:01 PM CET
Moon 7:34 PM CET (3/27) 5:56 AM CET (3/27)
Length of Visible Light 13h 50m
Length of Day
12h 40m
Full, 100% of the Moon is Illuminated
Mar 27
Full
Apr 3
Last Quarter
Apr 10
New
Apr 18
First Quarter
Apr 25
Full

Hourly Weather History & Observations

Time (CET) Temp. Windchill Dew Point Humidity Pressure Visibility Wind Dir Wind Speed Gust Speed Precip Events Conditions
12:25 AM 26.6 °F 16.8 °F 19.4 °F 74% 30.01 in 6.2 mi ENE 10.4 mph - N/A   Unknown
12:55 AM 26.6 °F 16.8 °F 19.4 °F 74% 30.01 in 6.2 mi ENE 10.4 mph - N/A   Unknown
1:00 AM 26 °F - 20 °F 68% 30.03 in 28 mi ENE 11.2 mph - -   Partly Cloudy
1:25 AM 26.6 °F 16.2 °F 19.4 °F 74% 30.01 in 6.2 mi ENE 11.5 mph - N/A   Unknown
1:55 AM 26.6 °F 16.8 °F 19.4 °F 74% 30.01 in 6.2 mi ENE 10.4 mph - N/A   Unknown
2:25 AM 26.6 °F 16.2 °F 19.4 °F 74% 30.01 in 6.2 mi ENE 11.5 mph - N/A   Unknown
2:55 AM 26.6 °F 16.2 °F 19.4 °F 74% 30.01 in 6.2 mi East 11.5 mph - N/A   Unknown
3:25 AM 24.8 °F 14.6 °F 19.4 °F 80% 30.01 in 6.2 mi ENE 10.4 mph - N/A   Unknown
3:55 AM 24.8 °F 14.6 °F 19.4 °F 80% 30.01 in 6.2 mi ENE 10.4 mph - N/A   Unknown
4:00 AM 25 °F - 20 °F 72% 30.01 in 22 mi ENE 8.9 mph - -   Scattered Clouds
4:25 AM 24.8 °F 16.1 °F 19.4 °F 80% 30.01 in 6.2 mi ENE 8.1 mph - N/A   Unknown
4:55 AM 24.8 °F 15.3 °F 19.4 °F 80% 30.01 in 6.2 mi East 9.2 mph - N/A   Unknown
5:25 AM 24.8 °F 14.6 °F 19.4 °F 80% 30.01 in 6.2 mi East 10.4 mph - N/A   Unknown
5:55 AM 24.8 °F 14.6 °F 19.4 °F 80% 30.01 in 6.2 mi ENE 10.4 mph - N/A   Unknown
6:25 AM 24.8 °F 15.3 °F 19.4 °F 80% 30.01 in 6.2 mi East 9.2 mph - N/A   Unknown
6:55 AM 24.8 °F 15.3 °F 19.4 °F 80% 30.01 in 6.2 mi ENE 9.2 mph - N/A   Unknown
7:00 AM 25 °F - 20 °F 75% 30.01 in 19 mi ENE 8.9 mph - -   Partly Cloudy
7:25 AM 26.6 °F 16.8 °F 21.2 °F 80% 30.01 in 6.2 mi ENE 10.4 mph - N/A   Unknown
7:55 AM 26.6 °F 16.8 °F 21.2 °F 80% 30.01 in 6.2 mi ENE 10.4 mph - N/A   Unknown
8:25 AM 28.4 °F 18.5 °F 21.2 °F 74% 30.01 in 6.2 mi East 11.5 mph - N/A   Unknown
8:55 AM 30.2 °F 19.8 °F 21.2 °F 69% 30.01 in 6.2 mi East 13.8 mph - N/A   Unknown
9:25 AM 32.0 °F 21.6 °F 19.4 °F 60% 30.01 in 6.2 mi East 15.0 mph - N/A   Unknown
9:55 AM 33.8 °F 23.5 °F 19.4 °F 56% 29.98 in 6.2 mi East 16.1 mph - N/A   Unknown
10:00 AM 34 °F - 20 °F 43% 30.01 in 19 mi East 17.9 mph - -  
10:25 AM 35.6 °F 25.2 °F 17.6 °F 48% 29.98 in 6.2 mi East 18.4 mph - N/A   Unknown
10:55 AM 35.6 °F 25.5 °F 17.6 °F 48% 29.98 in 6.2 mi East 17.3 mph - N/A   Unknown
11:25 AM 37.4 °F 28.2 °F 15.8 °F 41% 29.98 in 6.2 mi East 16.1 mph - N/A   Unknown
11:55 AM 37.4 °F 27.5 °F 17.6 °F 45% 29.98 in 6.2 mi East 18.4 mph - N/A   Unknown
12:25 PM 37.4 °F 27.8 °F 15.8 °F 41% 29.98 in 6.2 mi East 17.3 mph - N/A   Unknown
12:55 PM 39.2 °F 30.2 °F 15.8 °F 39% 29.95 in 6.2 mi East 17.3 mph - N/A   Unknown
1:00 PM 39 °F - 16 °F 26% 29.97 in 19 mi East 15.7 mph - -   Partly Cloudy
1:25 PM 41.0 °F 33.1 °F 15.8 °F 36% 29.95 in 6.2 mi East 15.0 mph 27.6 mph N/A   Unknown
1:55 PM 41.0 °F 33.1 °F 14.0 °F 33% 29.95 in 6.2 mi East 15.0 mph - N/A   Unknown
2:25 PM 41.0 °F 32.8 °F 14.0 °F 33% 29.92 in 6.2 mi East 16.1 mph - N/A   Unknown
2:55 PM 41.0 °F 32.5 °F 15.8 °F 36% 29.92 in 6.2 mi ENE 17.3 mph - N/A   Unknown
3:25 PM 42.8 °F 34.8 °F 14.0 °F 31% 29.92 in 6.2 mi East 17.3 mph - N/A   Unknown
3:55 PM 42.8 °F 35.4 °F 15.8 °F 34% 29.92 in 6.2 mi East 15.0 mph - N/A   Unknown
4:00 PM 42 °F - 14 °F 19% 29.92 in 25 mi East 13.4 mph - -   Scattered Clouds
4:25 PM 42.8 °F 35.1 °F 14.0 °F 31% 29.89 in 6.2 mi East 16.1 mph - N/A   Unknown
4:55 PM 41.0 °F 33.1 °F 14.0 °F 33% 29.89 in 6.2 mi East 15.0 mph - N/A   Unknown
5:25 PM 41.0 °F 32.5 °F 14.0 °F 33% 29.89 in 6.2 mi East 17.3 mph 28.8 mph N/A   Unknown
5:55 PM 41.0 °F 33.9 °F 15.8 °F 36% 29.89 in 6.2 mi East 12.7 mph - N/A   Unknown
6:25 PM 39.2 °F 30.8 °F 14.0 °F 36% 29.92 in 6.2 mi East 15.0 mph - N/A   Unknown
6:55 PM 37.4 °F 29.3 °F 15.8 °F 41% 29.92 in 6.2 mi East 12.7 mph - N/A   Unknown
7:00 PM 37 °F - 16 °F 29% 29.93 in 25 mi East 13.4 mph - -   Partly Cloudy
7:25 PM 37.4 °F 28.9 °F 17.6 °F 45% 29.92 in 6.2 mi East 13.8 mph - N/A   Unknown
7:55 PM 35.6 °F 26.6 °F 17.6 °F 48% 29.92 in 6.2 mi East 13.8 mph - N/A   Unknown
8:25 PM 35.6 °F 27.1 °F 19.4 °F 52% 29.92 in 6.2 mi East 12.7 mph - N/A   Unknown
8:55 PM 33.8 °F 24.3 °F 19.4 °F 56% 29.92 in 6.2 mi East 13.8 mph - N/A   Unknown
9:25 PM 33.8 °F 24.3 °F 19.4 °F 56% 29.95 in 6.2 mi ENE 13.8 mph - N/A   Unknown
9:55 PM 32.0 °F 22.5 °F 19.4 °F 60% 29.95 in 6.2 mi East 12.7 mph - N/A   Unknown
10:00 PM 32 °F - 19 °F 45% 29.96 in 28 mi East 13.4 mph - -  
10:25 PM 32.0 °F 22.5 °F 19.4 °F 60% 29.95 in 6.2 mi East 12.7 mph - N/A   Unknown
10:55 PM 30.2 °F 20.8 °F 19.4 °F 64% 29.95 in 6.2 mi East 11.5 mph - N/A   Unknown
11:25 PM 30.2 °F 21.3 °F 19.4 °F 64% 29.95 in 6.2 mi East 10.4 mph - N/A   Unknown
11:55 PM 28.4 °F 19.7 °F 19.4 °F 69% 29.95 in 6.2 mi ENE 9.2 mph - N/A   Unknown